User: anonymous   Login
Location: Columbia
(38.9520°N, 92.3340°W)
Time: 20:46:58
(UTC-05:00)
Language:

CZ-4B R/B - Orbit

View from above orbital plane
View from above orbital plane
View from above satellite
View from above satellite

Ground track
Ground track

The orbit data is extracted from the following two-line orbital elements,

1 29093U 06015B   17290.80293089  .00004195  00000-0  98499-4 0  9995
2 29093  97.5059  44.7894 0061300 235.8610 123.6814 15.40673276636406
Epoch (UTC): 17 October 2017 19:16:13
Eccentricity: 0.0061300
inclination: 97.5059°
perigee height: 402 km
apogee height: 486 km
right ascension of ascending node: 44.7894°
argument of perigee: 235.8610°
revolutions per day: 15.40673276
mean anomaly at epoch: 123.6814°
orbit number at epoch: 63640

The dashed part of the orbit path shows where the satellite is in the earth's shadow,  

DLR